JST538 NWWW-YBCG

Flight info

Callsign JST538
Flight time N/A
Altitude 38000
Route BEDON DCT NISAS DCT TEBUR DCT ISTEM DCT LAPIP DCT IRPOD DCT REGOM
Aircraft A319/M-SDE3FGHIRWY/LB1

Departure

Time 2026-04-22 13:49
Airport La Tontouta International Airport (NWWW)

Arrival

Time N/A
Airport Gold Coast Airport (YBCG)
Time Latitude Longitude Altitude Speed Heading
2026-04-22 13:24 -22.01265 166.21632 54 ft 0 kts 120°
2026-04-22 13:42 -22.01261 166.21625 54 ft 2 kts 120°
2026-04-22 13:42 -22.01253 166.21611 54 ft 2 kts 121°
2026-04-22 13:42 -22.01246 166.21597 53 ft 2 kts 121°
2026-04-22 13:43 -22.01238 166.21584 53 ft 2 kts 121°
2026-04-22 13:43 -22.01230 166.21570 52 ft 2 kts 143°
2026-04-22 13:43 -22.01216 166.21562 52 ft 2 kts 178°
2026-04-22 13:43 -22.01201 166.21565 53 ft 2 kts 211°
2026-04-22 13:44 -22.01198 166.21568 53 ft 0 kts 218°
2026-04-22 13:45 -22.01223 166.21553 52 ft 10 kts 210°
2026-04-22 13:46 -22.01323 166.21489 47 ft 19 kts 211°
2026-04-22 13:46 -22.01447 166.21408 42 ft 20 kts 220°
2026-04-22 13:46 -22.01436 166.21269 40 ft 21 kts 302°
2026-04-22 13:46 -22.01336 166.21095 36 ft 34 kts 300°
2026-04-22 13:47 -22.01160 166.20783 30 ft 61 kts 301°
2026-04-22 13:47 -22.00922 166.20357 29 ft 65 kts 301°
2026-04-22 13:47 -22.00771 166.20090 36 ft 19 kts 301°
2026-04-22 13:47 -22.00695 166.20007 37 ft 12 kts 333°
2026-04-22 13:48 -22.00701 166.19966 38 ft 8 kts 159°
2026-04-22 13:48 -22.00724 166.20003 38 ft 0 kts 119°
2026-04-22 13:48 -22.00759 166.20065 36 ft 38 kts 121°
2026-04-22 13:48 -22.01045 166.20572 28 ft 117 kts 122°
2026-04-22 13:49 -22.01573 166.21523 114 ft 171 kts 121°
2026-04-22 13:49 -22.02177 166.22606 969 ft 168 kts 122°
2026-04-22 13:49 -22.02782 166.23622 1924 ft 165 kts 122°
2026-04-22 13:49 -22.03432 166.24718 2573 ft 184 kts 121°
2026-04-22 13:50 -22.04205 166.25868 3274 ft 202 kts 141°
2026-04-22 13:50 -22.05536 166.26451 3798 ft 219 kts 174°
2026-04-22 13:50 -22.07092 166.26117 4234 ft 243 kts 211°
2026-04-22 13:50 -22.08249 166.24730 4753 ft 262 kts 248°
2026-04-22 13:51 -22.08530 166.22769 5450 ft 272 kts 271°
2026-04-22 13:51 -22.08432 166.20754 6378 ft 274 kts 275°
2026-04-22 13:51 -22.08297 166.18715 7279 ft 275 kts 275°
2026-04-22 13:51 -22.08186 166.16682 8158 ft 276 kts 274°
2026-04-22 13:52 -22.08099 166.14607 9007 ft 278 kts 273°
2026-04-22 13:52 -22.08029 166.12550 9795 ft 280 kts 272°
2026-04-22 13:52 -22.07967 166.10446 10516 ft 284 kts 273°
2026-04-22 13:52 -22.07918 166.08707 10804 ft 296 kts 273°